This is the latest recevied weather packets stored in our database for station/object KF7U. If no packets are shown the sender has not sent any weather packets the latest 10 day(s).
| Time | Temp. | Humidity | Pressure | Rain* | Wind** | Luminosity | Snow |
|---|---|---|---|---|---|---|---|
| 1777312955 | 24.44° C | 21% | 1012.2 hPa | 0 mm | - | 985 W/m² | - |
| 1777312655 | 23.89° C | 22% | 1012.2 hPa | 0 mm | - | 972 W/m² | - |
| 1777312355 | 23.89° C | 22% | 1012.2 hPa | 0 mm | - | 967 W/m² | - |
| 1777311774 | 24.44° C | 22% | 1012.5 hPa | 0 mm | - | 937 W/m² | - |
| 1777311455 | 24.44° C | 20% | 1012.5 hPa | 0 mm | - | 902 W/m² | - |
| 1777311155 | 24.44° C | 22% | 1012.5 hPa | 0 mm | - | 914 W/m² | - |
| 1777310855 | 23.89° C | 23% | 1012.5 hPa | 0 mm | - | 894 W/m² | - |
| 1777310555 | 23.89° C | 23% | 1012.5 hPa | 0 mm | - | 878 W/m² | - |
| 1777310255 | 23.33° C | 24% | 1012.5 hPa | 0 mm | - | 858 W/m² | - |
| 1777309955 | 23.33° C | 24% | 1012.5 hPa | 0 mm | - | 894 W/m² | - |
| 1777309656 | 23.33° C | 24% | 1012.5 hPa | 0 mm | - | 876 W/m² | - |
| 1777309355 | 23.89° C | 24% | 1012.5 hPa | 0 mm | - | 858 W/m² | - |
| 1777309055 | 23.89° C | 24% | 1012.5 hPa | 0 mm | - | 844 W/m² | - |
| 1777308755 | 23.89° C | 24% | 1012.5 hPa | 0 mm | - | 826 W/m² | - |
| 1777308456 | 23.33° C | 25% | 1012.5 hPa | 0 mm | - | 807 W/m² | - |
| 1777308154 | 23.33° C | 25% | 1012.5 hPa | 0 mm | - | 789 W/m² | - |
| 1777307855 | 22.78° C | 25% | 1012.5 hPa | 0 mm | - | 769 W/m² | - |
| 1777307554 | 22.78° C | 25% | 1012.5 hPa | 0 mm | - | 743 W/m² | - |
| 1777307255 | 22.22° C | 25% | 1012.5 hPa | 0 mm | - | 722 W/m² | - |
| 1777306955 | 22.22° C | 25% | 1012.2 hPa | 0 mm | - | 702 W/m² | - |
| 1777306655 | 22.22° C | 25% | 1012.2 hPa | 0 mm | - | 678 W/m² | - |
| 1777306356 | 22.22° C | 26% | 1012.2 hPa | 0 mm | - | 658 W/m² | - |
| 1777306055 | 22.22° C | 26% | 1012.2 hPa | 0 mm | - | 676 W/m² | - |
| 1777305761 | 21.67° C | 26% | 1012.2 hPa | 0 mm | - | 653 W/m² | - |
| 1777305455 | 21.67° C | 27% | 1012.2 hPa | 0 mm | - | 630 W/m² | - |
* Rain latest hour (hover to see other rain measurements)
** Current wind speed in m/s (hover to see current wind gust speed)